[[{"header":{"parameterUnit":"m.s-1","parameterCategory":1,"la1":30.2991,"la2":30.254,"lo1":-89.0895,"lo2":-89.0444,"dy":0.0017,"dx":0.0017,"nx":28,"ny":28,"refTime":"2025-09-11T09:00:00:Z","depth":0,"parameterNumber":2,"parameterNumberName":"U-component_of_WINDS"},"data":[0,0,0,0,0,0,0,0,0,0,0,0,0,0,0,0,0,0,0,0,0,0,0,0,0,0,0,0,0,0,0,0,0,0,0,0,0,0,0,0,0,0,0,0,0,0,0,0,0,0,0,0,0,0,0,0,0,0,-0.4922,-0.492,0,-0.4782,-0.478,-0.4778,-0.4669,-0.4668,-0.4666,-0.4665,-0.4523,-0.452,-0.4517,0,0,0,0,0,0,0,0,0,0,0,0,0,-0.5094,-0.5092,-0.4922,-0.492,-0.4918,-0.4782,-0.478,-0.4778,-0.4669,-0.4667,-0.4666,-0.4665,-0.4523,-0.452,-0.4517,0,0,0,0,0,0,0,0,0,0,0,0,0,-0.4993,-0.5091,-0.4922,-0.4847,-0.4839,-0.4782,-0.478,-0.4777,-0.4669,-0.4667,-0.4666,-0.4664,-0.4525,-0.452,-0.4516,-0.4522,0,0,-0.4503,-0.4502,0,0,0,0,0,0,0,0,-0.4999,-0.4987,-0.486,-0.4852,-0.4843,-0.4741,-0.4788,-0.4692,-0.4669,-0.4734,-0.4665,-0.4664,-0.4597,-0.4586,-0.4564,-0.4516,-0.451,-0.4503,-0.4501,-0.4499,-0.4498,0,0,0,0,0,0,0,-0.5006,-0.4993,-0.4866,-0.4858,-0.4848,-0.4821,-0.4804,-0.4769,-0.4676,-0.4728,-0.472,-0.4705,-0.4592,-0.4568,-0.4559,-0.4507,-0.4503,-0.4499,-0.4497,-0.4495,-0.4456,-0.4457,0,0,0,0,0,0,-0.5025,-0.4999,-0.4871,-0.4862,-0.4919,-0.4819,-0.4801,-0.4775,-0.4676,-0.4659,-0.4706,-0.47,-0.4576,-0.4564,-0.4554,-0.4553,-0.4499,-0.4495,-0.4492,-0.4454,-0.4456,-0.4458,0,0,0,0,0,0,-0.5029,-0.5015,-0.4876,-0.4928,-0.4909,-0.4817,-0.479,-0.4773,-0.475,-0.4659,-0.4642,-0.4699,-0.4574,-0.456,-0.4531,-0.4547,-0.4493,-0.4489,-0.4452,-0.4455,-0.4457,-0.4554,0,0,0,0,0,0,-0.5035,-0.5017,-0.5018,-0.4929,-0.4906,-0.4856,-0.4791,-0.4772,-0.4743,-0.4733,-0.4648,-0.4633,-0.4572,-0.4538,-0.4526,-0.454,-0.4486,-0.4451,-0.4453,-0.4456,-0.4549,-0.4559,-0.4568,0,0,0,0,0,-0.5041,-0.5052,-0.5019,-0.5004,-0.4906,-0.4857,-0.4844,-0.4774,-0.4744,-0.4745,-0.4687,-0.4635,-0.4547,-0.4535,-0.4522,-0.4535,-0.4449,-0.4453,-0.4456,-0.4544,-0.4557,-0.4568,0,0,0,0,0,0,-0.5146,-0.5039,-0.5001,-0.4984,-0.493,-0.4839,-0.4838,-0.479,-0.4744,-0.4737,-0.4652,-0.4633,-0.4613,-0.4571,-0.456,-0.4535,-0.4491,-0.4492,-0.4563,-0.4574,-0.4584,-0.4595,-0.4482,0,0,0,0,0,-0.5167,-0.5136,-0.5044,-0.5037,-0.5012,-0.493,-0.4906,-0.4856,-0.4798,-0.4775,-0.4714,-0.4659,-0.4619,-0.4594,-0.4552,-0.4542,-0.4521,-0.4544,-0.4553,-0.4562,-0.4564,-0.4554,-0.4562,-0.4468,-0.4468,-0.4468,0,0,-0.5211,-0.5148,-0.5134,-0.5057,-0.501,-0.4979,-0.4912,-0.4883,-0.4859,-0.477,-0.4739,-0.4692,-0.4625,-0.4605,-0.4593,-0.4569,-0.4585,-0.4566,-0.4573,-0.457,-0.4558,-0.4567,-0.4575,-0.4471,-0.447,-0.447,0,0,-0.5274,-0.5224,-0.5212,-0.5166,-0.5095,-0.504,-0.5037,-0.4952,-0.4918,-0.4885,-0.4817,-0.4787,-0.472,-0.4675,-0.4643,-0.4687,-0.4638,-0.4676,-0.4726,-0.4718,-0.4725,-0.4731,-0.4746,-0.4753,-0.4678,-0.4678,-0.4678,0,-0.5337,-0.5288,-0.5212,-0.5187,-0.5154,-0.5072,-0.5059,-0.5018,-0.4937,-0.4917,-0.489,-0.4803,-0.4752,-0.472,-0.473,-0.4707,-0.4701,-0.4686,-0.473,-0.4735,-0.474,-0.4754,-0.476,-0.4683,-0.4683,-0.4682,-0.4682,0,-0.5369,-0.5336,-0.5335,-0.5259,-0.5226,-0.5207,-0.5128,-0.5104,-0.5057,-0.5004,-0.4971,-0.4906,-0.4849,-0.4838,-0.4792,-0.4798,-0.4785,-0.4746,-0.4701,-0.4755,-0.4767,-0.4771,-0.469,-0.4689,-0.4687,-0.4686,0,0,-0.5496,-0.5376,-0.5377,-0.5341,-0.5256,-0.5229,-0.5206,-0.515,-0.5131,-0.5077,-0.5055,-0.4999,-0.4961,-0.4925,-0.4873,-0.4866,-0.4904,-0.4826,-0.4823,-0.4843,-0.4906,-0.4937,-0.4944,-0.487,-0.4871,-0.4871,-0.4912,0,-0.5546,-0.55,-0.543,-0.5407,-0.5375,-0.5295,-0.5274,-0.522,-0.517,-0.5135,-0.5079,-0.5041,-0.4994,-0.4972,-0.4961,-0.4902,-0.4916,-0.4898,-0.4849,-0.4848,-0.4869,-0.495,-0.4983,-0.5024,-0.4916,-0.4917,-0.4917,0,-0.5598,-0.5549,-0.5523,-0.5439,-0.5423,-0.5406,-0.5348,-0.5316,-0.5252,-0.5216,-0.5175,-0.5117,-0.5088,-0.5047,-0.5005,-0.4994,-0.4969,-0.4937,-0.4937,-0.493,-0.4886,-0.4946,-0.5036,-0.5042,-0.4923,-0.4923,-0.4923,0,-0.5693,-0.562,-0.5594,-0.5566,-0.5468,-0.5457,-0.5416,-0.535,-0.532,-0.5269,-0.5249,-0.5196,-0.5167,-0.5126,-0.5056,-0.5032,-0.5021,-0.4974,-0.499,-0.4992,-0.4992,-0.4993,-0.5079,-0.4976,-0.4976,-0.4976,-0.4976,0,-0.5756,-0.5743,-0.5635,-0.562,-0.5603,-0.5522,-0.5507,-0.5458,-0.54,-0.5373,-0.53,-0.5276,-0.5184,-0.515,-0.5094,-0.5067,-0.5055,-0.5024,-0.501,-0.5031,-0.5035,-0.5014,-0.5009,-0.4977,-0.4977,-0.4977,-0.4976,0,-0.586,-0.5787,-0.5754,-0.5663,-0.564,-0.5631,-0.5553,-0.5534,-0.5479,-0.5446,-0.5434,-0.5347,-0.5302,-0.5228,-0.5161,-0.5124,-0.5107,-0.5082,-0.5129,-0.512,-0.514,-0.5139,-0.5217,-0.5222,-0.5116,-0.5117,-0.5118,0,-0.5905,-0.5893,-0.5801,-0.5777,-0.5738,-0.5702,-0.5671,-0.559,-0.5561,-0.5486,-0.5476,-0.5425,-0.5381,-0.5312,-0.5244,-0.5192,-0.5165,-0.5196,-0.5157,-0.5179,-0.5165,-0.5167,-0.5165,-0.5205,-0.5207,-0.5208,-0.5209,0,-0.5993,-0.5957,-0.5915,-0.5861,-0.5826,-0.5779,-0.5728,-0.5713,-0.5621,-0.5591,-0.5544,-0.5509,-0.5441,-0.5391,-0.5329,-0.5286,-0.5232,-0.5222,-0.5223,-0.5244,-0.5272,-0.5257,-0.5154,-0.5221,-0.5219,-0.5219,-0.5218,-0.5218,-0.6068,-0.6054,-0.5986,-0.5941,-0.5895,-0.5849,-0.5826,-0.5768,-0.5728,-0.5666,-0.562,-0.5576,-0.551,-0.5422,-0.5381,-0.5345,-0.5321,-0.5323,-0.5323,-0.5325,-0.5333,-0.5277,-0.5334,-0.5333,-0.5333,-0.5332,-0.5332,0,-0.6152,-0.6105,-0.6064,-0.5995,-0.596,-0.5912,-0.5853,-0.5827,-0.5789,-0.5732,-0.5689,-0.5635,-0.5586,-0.5513,-0.5458,-0.5443,-0.5417,-0.5431,-0.5431,-0.5422,-0.5357,-0.5362,-0.5453,-0.5453,-0.5453,-0.5453,-0.5453,-0.5453,-0.6192,-0.6164,-0.612,-0.6068,-0.602,-0.5977,-0.5947,-0.5904,-0.5858,-0.58,-0.5759,-0.5712,-0.5648,-0.5587,-0.554,-0.5519,-0.5503,-0.5525,-0.5497,-0.5438,-0.5427,-0.5416,-0.542,-0.5522,-0.5522,-0.5564,-0.5565,-0.5565]},{"header":{"parameterUnit":"m.s-1","parameterCategory":1,"la1":30.2991,"la2":30.254,"lo1":-89.0895,"lo2":-89.0444,"dy":0.0017,"dx":0.0017,"nx":28,"ny":28,"refTime":"2025-09-11T09:00:00:Z","depth":0,"parameterNumber":3,"parameterNumberName":"V-component_of_WINDS"},"data":[0,0,0,0,0,0,0,0,0,0,0,0,0,0,0,0,0,0,0,0,0,0,0,0,0,0,0,0,0,0,0,0,0,0,0,0,0,0,0,0,0,0,0,0,0,0,0,0,0,0,0,0,0,0,0,0,0,0,-0.6141,-0.6142,0,-0.6288,-0.6289,-0.6291,-0.635,-0.635,-0.635,-0.6349,-0.6501,-0.6505,-0.6509,0,0,0,0,0,0,0,0,0,0,0,0,0,-0.5912,-0.5916,-0.6141,-0.6142,-0.6144,-0.6288,-0.629,-0.6292,-0.635,-0.635,-0.635,-0.6349,-0.6499,-0.6504,-0.651,0,0,0,0,0,0,0,0,0,0,0,0,0,-0.603,-0.5917,-0.614,-0.6191,-0.6197,-0.6287,-0.629,-0.6292,-0.6351,-0.635,-0.635,-0.6349,-0.6498,-0.6504,-0.651,-0.6561,0,0,-0.653,-0.6533,0,0,0,0,0,0,0,0,-0.6024,-0.6039,-0.6182,-0.6188,-0.6195,-0.63,-0.6265,-0.6382,-0.6351,-0.6292,-0.6349,-0.6349,-0.6435,-0.6446,-0.6475,-0.6568,-0.6575,-0.6531,-0.6535,-0.6538,-0.654,0,0,0,0,0,0,0,-0.6015,-0.6033,-0.6199,-0.6184,-0.6192,-0.6207,-0.6223,-0.6287,-0.6365,-0.6297,-0.6302,-0.6319,-0.6438,-0.6469,-0.6479,-0.6577,-0.6531,-0.6537,-0.6541,-0.6543,-0.672,-0.6721,0,0,0,0,0,0,-0.5999,-0.6025,-0.6194,-0.6203,-0.6106,-0.6211,-0.6229,-0.6267,-0.6364,-0.6378,-0.6319,-0.6321,-0.6458,-0.6471,-0.6484,-0.6551,-0.6538,-0.6544,-0.6548,-0.672,-0.6721,-0.6721,0,0,0,0,0,0,-0.5993,-0.6013,-0.6188,-0.6116,-0.6139,-0.6216,-0.6257,-0.627,-0.6301,-0.638,-0.6394,-0.6336,-0.6458,-0.6475,-0.6542,-0.6557,-0.6547,-0.6553,-0.6719,-0.672,-0.6721,-0.6684,0,0,0,0,0,0,-0.5987,-0.6011,-0.6031,-0.6116,-0.6143,-0.6243,-0.6258,-0.6273,-0.6312,-0.6316,-0.64,-0.6413,-0.6459,-0.6532,-0.6548,-0.6566,-0.6558,-0.6718,-0.6719,-0.6721,-0.6684,-0.6683,-0.6683,0,0,0,0,0,-0.5978,-0.6014,-0.6031,-0.6051,-0.6169,-0.6243,-0.6259,-0.631,-0.6313,-0.6333,-0.6385,-0.6411,-0.6553,-0.6538,-0.6557,-0.6577,-0.6717,-0.6719,-0.6721,-0.6684,-0.6684,-0.6683,0,0,0,0,0,0,-0.5929,-0.6026,-0.6046,-0.6111,-0.6168,-0.6253,-0.6281,-0.6308,-0.6366,-0.6367,-0.6428,-0.6447,-0.6509,-0.655,-0.6532,-0.6632,-0.6637,-0.6642,-0.6603,-0.6603,-0.6602,-0.6591,-0.6563,0,0,0,0,0,-0.5926,-0.5978,-0.606,-0.6109,-0.6137,-0.6204,-0.6238,-0.6273,-0.6335,-0.6359,-0.6416,-0.6475,-0.6533,-0.657,-0.6628,-0.669,-0.671,-0.6713,-0.6713,-0.6712,-0.6716,-0.6752,-0.6755,-0.6727,-0.6727,-0.6727,0,0,-0.5919,-0.5979,-0.6008,-0.6101,-0.6149,-0.6202,-0.6224,-0.6279,-0.6319,-0.6368,-0.6434,-0.6477,-0.6548,-0.6613,-0.6644,-0.6649,-0.6728,-0.6714,-0.6713,-0.6718,-0.6755,-0.6757,-0.6759,-0.6729,-0.6728,-0.6728,0,0,-0.5935,-0.5985,-0.6032,-0.608,-0.6153,-0.6198,-0.6209,-0.629,-0.6321,-0.6388,-0.6426,-0.6475,-0.6573,-0.6622,-0.666,-0.6694,-0.6721,-0.6711,-0.6709,-0.6744,-0.6746,-0.6748,-0.6761,-0.6765,-0.6715,-0.6715,-0.6715,0,-0.5918,-0.5999,-0.6052,-0.6105,-0.6145,-0.6192,-0.624,-0.6284,-0.6373,-0.6399,-0.6403,-0.6529,-0.6579,-0.6656,-0.6664,-0.6693,-0.6708,-0.6702,-0.6741,-0.6744,-0.6747,-0.676,-0.6764,-0.6714,-0.6714,-0.6714,-0.6714,0,-0.5974,-0.603,-0.6059,-0.6143,-0.6186,-0.6236,-0.6298,-0.6335,-0.6366,-0.641,-0.6478,-0.6541,-0.6612,-0.6633,-0.6663,-0.6714,-0.6715,-0.6729,-0.6736,-0.6747,-0.676,-0.6765,-0.6711,-0.6712,-0.6712,-0.6713,0,0,-0.5963,-0.6076,-0.6086,-0.6125,-0.621,-0.6254,-0.6306,-0.6376,-0.6407,-0.6466,-0.6512,-0.6595,-0.6609,-0.6651,-0.6688,-0.6718,-0.6742,-0.6729,-0.6732,-0.673,-0.6802,-0.6791,-0.6796,-0.676,-0.6761,-0.6762,-0.6796,0,-0.599,-0.6086,-0.6136,-0.621,-0.6262,-0.6308,-0.6354,-0.641,-0.6453,-0.6504,-0.6551,-0.6609,-0.6623,-0.6649,-0.6681,-0.6732,-0.6757,-0.673,-0.6803,-0.6805,-0.6784,-0.6803,-0.6791,-0.682,-0.6802,-0.6803,-0.6803,0,-0.6034,-0.6093,-0.6173,-0.6252,-0.6275,-0.6316,-0.6384,-0.6432,-0.6497,-0.6526,-0.6574,-0.661,-0.6668,-0.667,-0.675,-0.673,-0.6763,-0.6793,-0.6795,-0.6804,-0.6805,-0.6812,-0.6831,-0.6835,-0.6812,-0.6811,-0.6811,0,-0.6018,-0.6117,-0.6178,-0.621,-0.6303,-0.6331,-0.6371,-0.6436,-0.6475,-0.6535,-0.6561,-0.6626,-0.6662,-0.6712,-0.6765,-0.6762,-0.684,-0.6847,-0.6866,-0.6865,-0.6881,-0.6879,-0.6906,-0.6902,-0.6902,-0.6901,-0.6901,0,-0.6043,-0.609,-0.6172,-0.6209,-0.6263,-0.6321,-0.6373,-0.6417,-0.6474,-0.6521,-0.6565,-0.6608,-0.6675,-0.6727,-0.6768,-0.6829,-0.6844,-0.687,-0.688,-0.6866,-0.6863,-0.6888,-0.6888,-0.6903,-0.6902,-0.6902,-0.6902,0,-0.6034,-0.6091,-0.616,-0.6243,-0.6265,-0.6301,-0.6373,-0.6411,-0.6455,-0.6514,-0.6531,-0.6602,-0.6665,-0.6723,-0.6807,-0.6835,-0.6896,-0.6909,-0.6873,-0.6879,-0.6896,-0.6893,-0.694,-0.6949,-0.6938,-0.6938,-0.6938,0,-0.6047,-0.6084,-0.6171,-0.6205,-0.6245,-0.6299,-0.6339,-0.6397,-0.6437,-0.6515,-0.6544,-0.661,-0.6666,-0.6765,-0.6824,-0.6888,-0.6904,-0.6915,-0.6914,-0.6898,-0.6904,-0.6901,-0.6905,-0.6915,-0.6914,-0.6914,-0.6914,0,-0.6063,-0.6089,-0.6145,-0.621,-0.6257,-0.6311,-0.6367,-0.6393,-0.6462,-0.6504,-0.6569,-0.6613,-0.6698,-0.6764,-0.6835,-0.6877,-0.6907,-0.6914,-0.6922,-0.6908,-0.6886,-0.6898,-0.6872,-0.6913,-0.6913,-0.6913,-0.6913,-0.6913,-0.6065,-0.61,-0.6167,-0.6228,-0.6276,-0.6328,-0.6368,-0.6417,-0.6472,-0.6547,-0.6578,-0.6643,-0.6709,-0.6808,-0.6849,-0.6902,-0.6908,-0.692,-0.6923,-0.6925,-0.6922,-0.6877,-0.6915,-0.6915,-0.6916,-0.6916,-0.6916,0,-0.6083,-0.6129,-0.6184,-0.6261,-0.6309,-0.6333,-0.6396,-0.6435,-0.6492,-0.6551,-0.6605,-0.668,-0.6743,-0.6807,-0.6874,-0.6904,-0.692,-0.692,-0.6919,-0.6928,-0.6913,-0.6899,-0.6906,-0.6906,-0.6906,-0.6906,-0.6906,-0.6906,-0.6099,-0.616,-0.6194,-0.628,-0.6325,-0.639,-0.6424,-0.6472,-0.6518,-0.66,-0.6653,-0.6694,-0.6755,-0.6827,-0.6887,-0.6904,-0.6927,-0.6923,-0.6944,-0.6929,-0.6929,-0.6929,-0.6917,-0.6928,-0.6928,-0.6955,-0.6955,-0.6956]}]]